TimeCDT,TemperatureF,Dew PointF,Humidity,Sea Level PressureIn,VisibilityMPH,Wind Direction,Wind SpeedMPH,Gust SpeedMPH,PrecipitationIn,Events,Conditions,WindDirDegrees,DateUTC
12:09 AM,35.6,33.8,93,30.04,10.0,Calm,Calm,-,N/A,,Clear,0,2013-06-03 05:09:00
12:29 AM,35.6,33.8,93,30.04,10.0,Calm,Calm,-,N/A,,Clear,0,2013-06-03 05:29:00
12:49 AM,35.6,33.8,93,30.04,10.0,Calm,Calm,-,N/A,,Clear,0,2013-06-03 05:49:00
1:09 AM,35.6,35.6,100,30.04,10.0,Calm,Calm,-,N/A,,Clear,0,2013-06-03 06:09:00
1:29 AM,33.8,32.0,93,30.04,10.0,Calm,Calm,-,N/A,,Clear,0,2013-06-03 06:29:00
1:49 AM,33.8,32.0,93,30.04,10.0,Calm,Calm,-,N/A,,Clear,0,2013-06-03 06:49:00
2:09 AM,33.8,32.0,93,30.04,10.0,Calm,Calm,-,N/A,,Clear,0,2013-06-03 07:09:00
2:30 AM,32.0,32.0,100,30.04,10.0,Calm,Calm,-,N/A,,Clear,0,2013-06-03 07:30:00
2:49 AM,32.0,32.0,100,30.04,10.0,Calm,Calm,-,N/A,,Clear,0,2013-06-03 07:49:00
3:09 AM,32.0,32.0,100,30.05,10.0,Calm,Calm,-,N/A,,Clear,0,2013-06-03 08:09:00
3:30 AM,32.0,32.0,100,30.05,10.0,Calm,Calm,-,N/A,,Clear,0,2013-06-03 08:30:00
3:49 AM,32.0,32.0,100,30.05,10.0,Calm,Calm,-,N/A,,Clear,0,2013-06-03 08:49:00
4:10 AM,32.0,32.0,100,30.05,5.0,Calm,Calm,-,N/A,,Clear,0,2013-06-03 09:10:00
4:29 AM,32.0,32.0,100,30.05,10.0,Calm,Calm,-,N/A,,Clear,0,2013-06-03 09:29:00
4:49 AM,32.0,32.0,100,30.05,10.0,Calm,Calm,-,N/A,,Clear,0,2013-06-03 09:49:00
5:10 AM,32.0,32.0,100,30.05,10.0,Calm,Calm,-,N/A,,Clear,0,2013-06-03 10:10:00
5:29 AM,32.0,32.0,100,30.06,10.0,Calm,Calm,-,N/A,,Clear,0,2013-06-03 10:29:00
5:49 AM,32.0,32.0,100,30.06,10.0,Calm,Calm,-,N/A,,Clear,0,2013-06-03 10:49:00
6:09 AM,32.0,32.0,100,30.06,10.0,Calm,Calm,-,N/A,,Clear,0,2013-06-03 11:09:00
6:29 AM,33.8,33.8,100,30.06,10.0,Calm,Calm,-,N/A,,Clear,0,2013-06-03 11:29:00
6:49 AM,37.4,35.6,93,30.07,10.0,Calm,Calm,-,N/A,,Clear,0,2013-06-03 11:49:00
7:09 AM,41.0,39.2,93,30.08,10.0,Calm,Calm,-,N/A,,Clear,0,2013-06-03 12:09:00
7:29 AM,44.6,37.4,76,30.08,10.0,ENE,3.5,-,N/A,,Clear,70,2013-06-03 12:29:00
7:49 AM,48.2,37.4,66,30.08,10.0,ENE,4.6,-,N/A,,Clear,60,2013-06-03 12:49:00
8:09 AM,51.8,37.4,58,30.08,10.0,NE,4.6,-,N/A,,Clear,50,2013-06-03 13:09:00
8:29 AM,51.8,33.8,50,30.09,10.0,NE,3.5,-,N/A,,Clear,40,2013-06-03 13:29:00
8:49 AM,53.6,32.0,44,30.09,10.0,East,5.8,-,N/A,,Clear,100,2013-06-03 13:49:00
9:09 AM,55.4,32.0,41,30.09,10.0,East,4.6,-,N/A,,Clear,100,2013-06-03 14:09:00
9:29 AM,57.2,33.8,41,30.10,10.0,NNE,5.8,-,N/A,,Clear,20,2013-06-03 14:29:00
9:49 AM,57.2,32.0,38,30.10,10.0,NE,5.8,-,N/A,,Clear,40,2013-06-03 14:49:00
10:09 AM,57.2,32.0,38,30.10,10.0,Calm,Calm,-,N/A,,Clear,0,2013-06-03 15:09:00
10:29 AM,57.2,30.2,36,30.10,10.0,North,4.6,-,N/A,,Clear,350,2013-06-03 15:29:00
10:49 AM,57.2,30.2,36,30.10,10.0,NE,3.5,-,N/A,,Clear,40,2013-06-03 15:49:00
11:09 AM,57.2,30.2,36,30.10,10.0,ESE,3.5,-,N/A,,Clear,110,2013-06-03 16:09:00
11:29 AM,59.0,30.2,34,30.10,10.0,NE,6.9,-,N/A,,Clear,50,2013-06-03 16:29:00
11:49 AM,59.0,30.2,34,30.09,10.0,East,3.5,-,N/A,,Clear,90,2013-06-03 16:49:00
12:09 PM,59.0,30.2,34,30.09,10.0,NNE,3.5,-,N/A,,Clear,30,2013-06-03 17:09:00
12:30 PM,60.8,32.0,34,30.09,10.0,Calm,Calm,-,N/A,,Clear,0,2013-06-03 17:30:00
12:49 PM,60.8,30.2,31,30.09,10.0,NNE,6.9,-,N/A,,Clear,30,2013-06-03 17:49:00
1:09 PM,60.8,28.4,29,30.08,10.0,NNE,4.6,-,N/A,,Clear,20,2013-06-03 18:09:00
1:29 PM,62.6,30.2,30,30.08,10.0,North,3.5,-,N/A,,Clear,10,2013-06-03 18:29:00
1:49 PM,62.6,30.2,30,30.07,10.0,Calm,Calm,-,N/A,,Clear,0,2013-06-03 18:49:00
2:09 PM,62.6,30.2,30,30.07,10.0,WNW,3.5,-,N/A,,Clear,300,2013-06-03 19:09:00
2:29 PM,62.6,28.4,27,30.08,10.0,Calm,Calm,-,N/A,,Clear,0,2013-06-03 19:29:00
2:49 PM,64.4,30.2,28,30.08,10.0,North,3.5,-,N/A,,Clear,360,2013-06-03 19:49:00
3:09 PM,62.6,30.2,30,30.07,10.0,North,3.5,-,N/A,,Clear,350,2013-06-03 20:09:00
3:29 PM,62.6,28.4,27,30.06,10.0,Calm,Calm,-,N/A,,Clear,0,2013-06-03 20:29:00
3:49 PM,64.4,30.2,28,30.06,10.0,Calm,Calm,-,N/A,,Clear,0,2013-06-03 20:49:00
4:09 PM,62.6,30.2,30,30.05,10.0,Calm,Calm,-,N/A,,Clear,0,2013-06-03 21:09:00
4:29 PM,62.6,30.2,30,30.05,10.0,Calm,Calm,-,N/A,,Clear,0,2013-06-03 21:29:00
4:49 PM,62.6,30.2,30,30.05,10.0,NE,4.6,-,N/A,,Clear,40,2013-06-03 21:49:00
5:09 PM,62.6,30.2,30,30.05,10.0,East,4.6,-,N/A,,Clear,100,2013-06-03 22:09:00
5:30 PM,62.6,32.0,32,30.04,10.0,Calm,Calm,-,N/A,,Clear,0,2013-06-03 22:30:00
5:49 PM,62.6,30.2,30,30.04,10.0,East,3.5,-,N/A,,Clear,90,2013-06-03 22:49:00
6:09 PM,62.6,28.4,27,30.04,10.0,Calm,Calm,-,N/A,,Clear,0,2013-06-03 23:09:00
6:30 PM,62.6,28.4,27,30.04,10.0,NE,5.8,-,N/A,,Clear,40,2013-06-03 23:30:00
6:49 PM,62.6,30.2,30,30.04,10.0,Calm,Calm,-,N/A,,Clear,0,2013-06-03 23:49:00
7:09 PM,60.8,28.4,29,30.04,10.0,ENE,3.5,-,N/A,,Clear,70,2013-06-04 00:09:00
7:29 PM,59.0,32.0,36,30.05,10.0,Calm,Calm,-,N/A,,Clear,0,2013-06-04 00:29:00
7:49 PM,57.2,32.0,38,30.06,10.0,Calm,Calm,-,N/A,,Clear,0,2013-06-04 00:49:00
8:09 PM,57.2,35.6,44,30.07,10.0,Calm,Calm,-,N/A,,Clear,0,2013-06-04 01:09:00
8:29 PM,57.2,33.8,41,30.08,10.0,Calm,Calm,-,N/A,,Clear,0,2013-06-04 01:29:00
8:49 PM,57.2,37.4,48,30.08,10.0,SSE,5.8,-,N/A,,Clear,150,2013-06-04 01:49:00
9:09 PM,57.2,35.6,44,30.09,10.0,SE,4.6,-,N/A,,Clear,140,2013-06-04 02:09:00
9:29 PM,55.4,35.6,47,30.10,10.0,Calm,Calm,-,N/A,,Clear,0,2013-06-04 02:29:00
9:49 PM,53.6,35.6,51,30.10,10.0,Calm,Calm,-,N/A,,Scattered Clouds,0,2013-06-04 02:49:00
10:10 PM,51.8,35.6,54,30.11,10.0,Calm,Calm,-,N/A,,Clear,0,2013-06-04 03:10:00
10:29 PM,51.8,35.6,54,30.11,10.0,NE,3.5,-,N/A,,Clear,50,2013-06-04 03:29:00
10:49 PM,51.8,37.4,58,30.11,10.0,Calm,Calm,-,N/A,,Clear,0,2013-06-04 03:49:00
11:09 PM,50.0,39.2,66,30.12,10.0,NE,3.5,-,N/A,,Clear,40,2013-06-04 04:09:00
11:29 PM,51.8,37.4,58,30.12,10.0,NE,4.6,-,N/A,,Clear,50,2013-06-04 04:29:00
11:49 PM,50.0,35.6,58,30.12,10.0,NNE,4.6,-,N/A,,Clear,30,2013-06-04 04:49:00